Regional Weather Roundup
Issued by NWS

Home | Current Version | Previous Version | Text Only | Print | Product List | Glossary Off
Versions: 1 2 3 4 5 6 7 8 9 10 11 12 13 14 15 16 17 18 19 20 21 22 23 24 25 26 27

000
ASUS45 KCYS 200810
RWRWY

WYOMING REGIONAL WEATHER ROUNDUP
NATIONAL WEATHER SERVICE CHEYENNE WY
200 AM MDT SUN AUG 20 2017

NOTE:  "FAIR" INDICATES FEW OR NO CLOUDS BELOW 12,000 FEET
WITH NO SIGNIFICANT WEATHER AND/OR OBSTRUCTIONS TO VISIBILITY.

WYZ001-200900-
YELLOWSTONE NATIONAL PARK

CITY           SKY/WX    TMP DP  RH WIND       PRES   REMARKS
LK YELLOWSTONE   N/A     41  35  79 CALM      30.24S
W YELLOWSTONE  NOT AVBL

$$
WYZ002>013-054>058-071-098>099-200900-
NORTHERN WYOMING

CITY           SKY/WX    TMP DP  RH WIND       PRES   REMARKS
JACKSON        FAIR      46  31  55 NE6       30.16S
CODY           FAIR      62  38  40 N10G18    30.08R
GREYBULL       FAIR      61  39  44 E5        29.96R
WORLAND        FAIR      59  40  49 CALM      29.97S
SHERIDAN       FAIR      53  41  63 CALM      30.04S
BUFFALO        FAIR      60  36  40 SW7       30.10S
GILLETTE       FAIR      61  39  44 CALM      30.03R
HULETT         FAIR      68  41  37 N7        30.05R
NEWCASTLE      FAIR      66  32  28 N3        30.00S

$$
WYZ014>020-022>026-101>103-200900-
CENTRAL WYOMING

CITY           SKY/WX    TMP DP  RH WIND       PRES   REMARKS
BIG PINEY      FAIR      45  28  51 CALM      30.22F
PINEDALE       FAIR      39  32  75 W6        30.24S WCI  35
DUBOIS         FAIR      48  23  37 W10       30.20S
LANDER           N/A    N/A N/A N/A MISG      30.09S
RIVERTON       FAIR      57  25  29 W6        30.07S
CASPER         FAIR      55  35  47 SW3       30.09R
DOUGLAS        FAIR      60  37  42 SW6       30.05R

$$
WYZ021-027>030-104>119-200900-
SOUTHERN WYOMING

CITY           SKY/WX    TMP DP  RH WIND       PRES   REMARKS
EVANSTON       FAIR      60  36  40 S8        30.22F
FORT BRIDGER   FAIR      61  34  35 SW9       30.24F
ROCK SPRINGS   FAIR      63  33  32 W3        30.19F
RAWLINS        FAIR      53  26  35 CALM      30.18F
SARATOGA       FAIR      52  32  46 SE5       30.22S
LARAMIE        FAIR      49  32  52 SE8       30.21S
CHEYENNE       FAIR      62  30  29 W5        30.12S
TORRINGTON     FAIR      58  43  57 NE10      29.96S
PINE BLUFFS    FAIR      48  37  66 W6        30.05S

$$




USA.gov is the U.S. government's official web portal to all federal, state and local government web resources and services.